{"data":{"norad_id":52312,"epoch":"2026-09-20T02:07:21.082080Z","epoch_age_seconds":95223,"freshness":"FRESH","line1":"1 52312U 22041BD  26263.08843845  .00001056  00000+0  42378-4 0  9990","line2":"2 52312  53.1598 283.3000 0001165  80.8551 279.2583 15.34395079245397","mean_motion":15.34395079,"eccentricity":0.0001165,"inclination_deg":53.1598,"raan_deg":283.3,"arg_perigee_deg":80.8551,"mean_anomaly_deg":279.2583,"bstar":4.2378e-5,"rev_number":24539,"period_min":93.848059063021,"perigee_km":461.9209069033,"apogee_km":463.5148260872,"semimajor_km":6840.8548664952,"source":"CELESTRAK","updated_at":"2026-09-20T09:00:40.020486Z"}}